Погода в Алушкове

Россия / Смоленская область     54°26′29″N   31°32′09″E
темп.,
°C
ветер,
м/с
пор.,
м/с
влажн.,
%
обл.,
%
осадки,
мм/ч
давл.,
гПа
погр.,
м
10 мая, пн
пн1000:00+3зсз22705 0.0 102510
03:00+3з01665 0.0 102610
06:00+3ю11665 0.0 102711
09:00+9ю23555 0.0 1028384
12:00+13ю224420 0.0 10281188
15:00+14ююз22415 0.0 10271370
18:00+14ююв1145100 0.0 10261248
21:00+9вюв22615 0.0 102710
11 мая, вт
вт1100:00+7вюв22670 0.0 102816
03:00+5в22735 0.0 102822
06:00+5в35775 0.0 102879
09:00+11всв465910 0.0 1027429
12:00+15всв564526 0.0 1026903
15:00+17всв564771 0.0 10241051
18:00+17всв4765100 0.0 1024730
21:00+12всв498629 0.0 1024156
12 мая, ср
ср1200:00+11в3109310 0.0 1024200
03:00+10юв4109719 0.0 1024321
06:00+7юв38940 0.0 1025184
09:00+11юв57705 0.0 1025649
12:00+15вюв345692 0.0 10231180
15:00+13всв2473100 0.1 1021545
18:00+10ююз2393100 0.9 1016152
21:00+7юв51097100 8.6 1015554
13 мая, чт
чт1300:00+8юв61295100 2.3 1016739
03:00+6в51197100 2.3 1015383
06:00+7вюв5109665 1.2 1015493
09:00+10юв7108899 1.8 1015949
12:00+11юв7107699 0.5 10151336
15:00+13ююв6970100 0.7 10151362
18:00+14юв497098 0.1 10151284
21:00+10вюв4108450 0.1 1014170
14 мая, пт
пт1400:00+9вюв41086100 0.0 1015196
03:00+10вюв41088100 0.0 1014204
06:00+12вюв6149085 0.1 1012385
09:00+15вюв71583100 0.3 1011739
12:00+16вюв71284100 0.4 1010936
15:00+17ююв5982100 1.5 1008806
18:00+16ю5108761 3.1 1007729
21:00+13ю410945 4.9 1008345